| time (UTC) | temp C | wind direction | speed KPH | gust KPH | rain 1hr cm | rain 24hr cm | rain mn cm | humidity % | barometer mb |
| 20260905224102 | 21 | 290 | 11.3 | 16.1 | 0.00 | 0.13 | 0.13 | 52 | 1016.0 |
| 20260905223101 | 21 | 280 | 9.7 | 14.5 | 0.00 | 0.13 | 0.13 | 52 | 1016.1 |
| 20260905222101 | 21 | 316 | 8.0 | 12.9 | 0.00 | 0.13 | 0.13 | 53 | 1016.1 |
| 20260905221104 | 21 | 305 | 9.7 | 14.5 | 0.00 | 0.13 | 0.13 | 53 | 1016.2 |
| 20260905215102 | 20 | 274 | 8.0 | 14.5 | 0.00 | 0.13 | 0.13 | 57 | 1016.5 |
| 20260905214103 | 20 | 255 | 8.0 | 12.9 | 0.00 | 0.13 | 0.13 | 57 | 1016.6 |
| 20260905213102 | 20 | 0.0 | 0.0 | 0.00 | 0.13 | 0.13 | 58 | 1016.7 | |
| 20260905212104 | 19 | 274 | 9.7 | 16.1 | 0.00 | 0.13 | 0.13 | 59 | 1016.7 |
| 20260905211104 | 20 | 296 | 11.3 | 16.1 | 0.00 | 0.13 | 0.13 | 58 | 1016.8 |
| 20260905205103 | 20 | 289 | 11.3 | 16.1 | 0.00 | 0.13 | 0.13 | 57 | 1016.9 |
| 20260905204103 | 20 | 267 | 11.3 | 17.7 | 0.00 | 0.13 | 0.13 | 59 | 1016.9 |
| 20260905203103 | 19 | 271 | 14.5 | 17.7 | 0.00 | 0.13 | 0.13 | 60 | 1017.0 |
| 20260905202124 | 18 | 288 | 12.9 | 19.3 | 0.00 | 0.13 | 0.13 | 63 | 1017.1 |
| 20260905201104 | 18 | 299 | 12.9 | 16.1 | 0.00 | 0.13 | 0.13 | 65 | 1017.2 |
| 20260905200125 | 17 | 288 | 16.1 | 20.9 | 0.00 | 0.13 | 0.13 | 65 | 1017.3 |
| 20260905195105 | 17 | 278 | 14.5 | 19.3 | 0.00 | 0.13 | 0.13 | 69 | 1017.4 |
| 20260905194125 | 17 | 261 | 14.5 | 17.7 | 0.00 | 0.13 | 0.13 | 69 | 1017.4 |
| 20260905193104 | 17 | 259 | 12.9 | 16.1 | 0.00 | 0.13 | 0.13 | 69 | 1017.4 |
| 20260905192103 | 17 | 286 | 12.9 | 17.7 | 0.00 | 0.13 | 0.13 | 68 | 1017.5 |
| 20260905191125 | 17 | 284 | 14.5 | 19.3 | 0.00 | 0.13 | 0.13 | 69 | 1017.6 |
| 20260905190104 | 17 | 274 | 14.5 | 19.3 | 0.00 | 0.13 | 0.13 | 68 | 1017.6 |
| 20260905185106 | 17 | 277 | 17.7 | 24.1 | 0.00 | 0.13 | 0.13 | 70 | 1017.6 |
| 20260905184104 | 17 | 264 | 12.9 | 19.3 | 0.00 | 0.13 | 0.13 | 72 | 1017.8 |
| 20260905183106 | 16 | 279 | 12.9 | 17.7 | 0.00 | 0.13 | 0.13 | 74 | 1017.9 |
| 20260905182104 | 16 | 282 | 12.9 | 16.1 | 0.00 | 0.13 | 0.13 | 74 | 1018.0 |
| 20260905181105 | 16 | 325 | 11.3 | 14.5 | 0.00 | 0.13 | 0.13 | 74 | 1018.1 |
| 20260905180106 | 16 | 277 | 12.9 | 16.1 | 0.00 | 0.13 | 0.13 | 74 | 1018.1 |
| 20260905175106 | 16 | 292 | 12.9 | 19.3 | 0.00 | 0.13 | 0.13 | 75 | 1018.0 |
| 20260905174105 | 16 | 284 | 11.3 | 16.1 | 0.00 | 0.13 | 0.13 | 75 | 1018.0 |
| 20260905173105 | 15 | 256 | 12.9 | 19.3 | 0.00 | 0.13 | 0.13 | 78 | 1018.1 |
| 20260905172107 | 14 | 287 | 12.9 | 19.3 | 0.00 | 0.13 | 0.13 | 80 | 1018.1 |
| 20260905171105 | 14 | 255 | 12.9 | 17.7 | 0.00 | 0.13 | 0.13 | 81 | 1018.0 |
| 20260905170105 | 14 | 267 | 9.7 | 14.5 | 0.00 | 0.13 | 0.13 | 82 | 1018.0 |
| 20260905165107 | 13 | 270 | 8.0 | 12.9 | 0.00 | 0.13 | 0.13 | 82 | 1018.0 |
| 20260905164107 | 13 | 252 | 9.7 | 12.9 | 0.00 | 0.13 | 0.13 | 82 | 1018.0 |
| 20260905163107 | 13 | 269 | 8.0 | 14.5 | 0.00 | 0.13 | 0.13 | 84 | 1017.9 |
| 20260905162105 | 13 | 275 | 8.0 | 11.3 | 0.00 | 0.13 | 0.13 | 84 | 1017.8 |
| 20260905161107 | 13 | 262 | 9.7 | 11.3 | 0.00 | 0.13 | 0.13 | 85 | 1017.8 |
| 20260905160106 | 13 | 273 | 6.4 | 9.7 | 0.00 | 0.13 | 0.13 | 85 | 1017.9 |
| 20260905155108 | 13 | 261 | 8.0 | 11.3 | 0.00 | 0.13 | 0.13 | 86 | 1017.9 |
| 20260905154106 | 13 | 233 | 3.2 | 4.8 | 0.00 | 0.13 | 0.13 | 87 | 1017.9 |
| 20260905153108 | 13 | 266 | 3.2 | 6.4 | 0.00 | 0.13 | 0.13 | 88 | 1017.8 |
| 20260905152107 | 13 | 270 | 4.8 | 6.4 | 0.00 | 0.13 | 0.13 | 88 | 1017.8 |
| 20260905151108 | 13 | 283 | 3.2 | 6.4 | 0.00 | 0.13 | 0.13 | 89 | 1017.7 |
| 20260905150107 | 12 | 259 | 3.2 | 4.8 | 0.00 | 0.13 | 0.13 | 89 | 1017.6 |
| 20260905145127 | 12 | 23 | 0.0 | 3.2 | 0.00 | 0.13 | 0.13 | 89 | 1017.5 |
| 20260905144107 | 12 | 0.0 | 0.0 | 0.00 | 0.13 | 0.13 | 88 | 1017.4 | |
| 20260905143127 | 12 | 0.0 | 0.0 | 0.00 | 0.13 | 0.13 | 88 | 1017.3 | |
| 20260905142107 | 11 | 0.0 | 0.0 | 0.00 | 0.13 | 0.13 | 87 | 1017.3 | |
| 20260905141109 | 12 | 0.0 | 0.0 | 0.00 | 0.13 | 0.13 | 87 | 1017.1 | |
| 20260905140127 | 12 | 0.0 | 0.0 | 0.00 | 0.13 | 0.13 | 87 | 1017.0 | |
| 20260905135108 | 12 | 203 | 0.0 | 1.6 | 0.00 | 0.13 | 0.13 | 87 | 1016.9 |
| 20260905134107 | 12 | 90 | 1.6 | 3.2 | 0.00 | 0.13 | 0.13 | 87 | 1016.8 |
| 20260905133107 | 12 | 270 | 0.0 | 3.2 | 0.00 | 0.13 | 0.13 | 87 | 1016.7 |
| 20260905132109 | 12 | 270 | 0.0 | 3.2 | 0.00 | 0.13 | 0.13 | 86 | 1016.6 |
| 20260905131107 | 12 | 223 | 3.2 | 6.4 | 0.00 | 0.13 | 0.13 | 87 | 1016.5 |
| 20260905130109 | 12 | 196 | 1.6 | 3.2 | 0.00 | 0.13 | 0.13 | 86 | 1016.4 |
| 20260905125110 | 12 | 266 | 3.2 | 4.8 | 0.00 | 0.13 | 0.13 | 86 | 1016.4 |
| 20260905124109 | 12 | 259 | 4.8 | 8.0 | 0.00 | 0.13 | 0.13 | 86 | 1016.4 |
| 20260905123108 | 12 | 0.0 | 0.0 | 0.00 | 0.13 | 0.13 | 86 | 1016.4 | |
| 20260905122130 | 12 | 240 | 3.2 | 4.8 | 0.00 | 0.13 | 0.13 | 87 | 1016.5 |
| 20260905121108 | 12 | 241 | 0.0 | 3.2 | 0.00 | 0.13 | 0.13 | 87 | 1016.4 |
| 20260905120108 | 12 | 219 | 4.8 | 6.4 | 0.00 | 0.13 | 0.13 | 88 | 1016.4 |
| 20260905115109 | 12 | 251 | 4.8 | 8.0 | 0.00 | 0.13 | 0.13 | 88 | 1016.4 |
| 20260905114129 | 12 | 210 | 3.2 | 4.8 | 0.00 | 0.13 | 0.13 | 88 | 1016.4 |
| 20260905113131 | 12 | 0.0 | 0.0 | 0.00 | 0.13 | 0.13 | 88 | 1016.3 | |
| 20260905112109 | 12 | 0.0 | 0.0 | 0.00 | 0.13 | 0.13 | 88 | 1016.2 | |
| 20260905111109 | 12 | 0.0 | 0.0 | 0.00 | 0.13 | 0.13 | 88 | 1016.2 | |
| 20260905110111 | 12 | 0.0 | 0.0 | 0.00 | 0.13 | 0.13 | 88 | 1016.2 | |
| 20260905105111 | 12 | 0.0 | 0.0 | 0.00 | 0.13 | 0.13 | 87 | 1016.2 | |
| 20260905104131 | 12 | 0.0 | 0.0 | 0.00 | 0.13 | 0.13 | 87 | 1016.2 | |
| 20260905103110 | 12 | 0.0 | 3.2 | 0.00 | 0.13 | 0.13 | 87 | 1016.2 | |
| 20260905102111 | 12 | 225 | 0.0 | 3.2 | 0.00 | 0.13 | 0.13 | 87 | 1016.1 |
| 20260905101130 | 12 | 248 | 1.6 | 3.2 | 0.03 | 0.13 | 0.13 | 87 | 1016.1 |
| 20260905100110 | 12 | 180 | 0.0 | 1.6 | 0.08 | 0.13 | 0.13 | 86 | 1016.2 |
| 20260905095110 | 12 | 0.0 | 0.0 | 0.13 | 0.13 | 0.13 | 86 | 1016.1 | |
| 20260905094132 | 12 | 194 | 1.6 | 3.2 | 0.13 | 0.13 | 0.13 | 85 | 1016.1 |
| 20260905093110 | 12 | 0.0 | 0.0 | 0.13 | 0.13 | 0.13 | 85 | 1016.1 | |
| 20260905092152 | 12 | 0.0 | 0.0 | 0.13 | 0.13 | 0.13 | 85 | 1016.1 | |
| 20260905091110 | 12 | 68 | 0.0 | 1.6 | 0.10 | 0.10 | 0.10 | 84 | 1016.1 |
| 20260905090111 | 12 | 117 | 3.2 | 3.2 | 0.05 | 0.05 | 0.05 | 84 | 1016.0 |
| 20260905085153 | 12 | 0.0 | 0.0 | 0.00 | 0.00 | 0.00 | 84 | 1015.9 | |
| 20260905084111 | 11 | 0.0 | 0.0 | 0.00 | 0.00 | 0.00 | 84 | 1015.9 | |
| 20260905083111 | 11 | 262 | 1.6 | 3.2 | 0.00 | 0.00 | 0.00 | 84 | 1015.8 |
| 20260905082213 | 11 | 0.0 | 0.0 | 0.00 | 0.00 | 0.00 | 83 | 1015.7 | |
| 20260905081113 | 11 | 0.0 | 0.0 | 0.00 | 0.00 | 0.00 | 83 | 1015.7 | |
| 20260905080113 | 11 | 0.0 | 0.0 | 0.00 | 0.00 | 0.00 | 83 | 1015.7 | |
| 20260905075113 | 11 | 186 | 0.0 | 1.6 | 0.00 | 0.00 | 0.00 | 83 | 1015.6 |
| 20260905074113 | 11 | 0.0 | 0.0 | 0.00 | 0.00 | 0.00 | 82 | 1015.4 | |
| 20260905073112 | 11 | 204 | 1.6 | 3.2 | 0.00 | 0.00 | 0.00 | 82 | 1015.4 |
| 20260905072113 | 11 | 0.0 | 0.0 | 0.00 | 0.00 | 0.00 | 81 | 1015.4 | |
| 20260905071112 | 11 | 0.0 | 0.0 | 0.00 | 0.00 | 0.00 | 80 | 1015.3 | |
| 20260905070132 | 11 | 0.0 | 0.0 | 0.00 | 0.00 | 0.00 | 80 | 1015.3 | |
| 20260905065112 | 11 | 0.0 | 0.0 | 0.00 | 0.00 | 0.00 | 79 | 1015.2 | |
| 20260905064112 | 11 | 192 | 0.0 | 3.2 | 0.00 | 0.00 | 0.00 | 77 | 1015.1 |
| 20260905063112 | 11 | 29 | 1.6 | 3.2 | 0.00 | 0.00 | 0.00 | 76 | 1014.9 |
| 20260905062113 | 12 | 0.0 | 0.0 | 0.00 | 0.00 | 0.00 | 75 | 1014.9 | |
| 20260905061113 | 12 | 0.0 | 0.0 | 0.00 | 0.00 | 0.00 | 74 | 1014.8 | |
| 20260905060112 | 12 | 0.0 | 0.0 | 0.00 | 0.00 | 0.00 | 72 | 1014.8 | |
| 20260905055113 | 13 | 7 | 0.0 | 3.2 | 0.00 | 0.00 | 0.00 | 71 | 1014.8 |
| 20260905054113 | 13 | 0.0 | 0.0 | 0.00 | 0.00 | 0.00 | 70 | 1014.8 | |
| 20260905053113 | 13 | 0.0 | 0.0 | 0.00 | 0.00 | 0.00 | 70 | 1014.8 | |
| 20260905052113 | 14 | 180 | 0.0 | 1.6 | 0.00 | 0.00 | 0.00 | 69 | 1014.8 |
| 20260905051113 | 14 | 308 | 3.2 | 4.8 | 0.00 | 0.00 | 0.00 | 69 | 1014.8 |
| 20260905050114 | 14 | 220 | 3.2 | 9.7 | 0.00 | 0.00 | 0.00 | 68 | 1014.8 |
| 20260905045113 | 14 | 196 | 1.6 | 3.2 | 0.00 | 0.00 | 0.00 | 67 | 1014.9 |
| 20260905044114 | 15 | 254 | 1.6 | 3.2 | 0.00 | 0.00 | 0.00 | 66 | 1014.9 |
| 20260905043114 | 15 | 198 | 1.6 | 4.8 | 0.00 | 0.00 | 0.00 | 64 | 1014.9 |
| 20260905042115 | 15 | 186 | 0.0 | 3.2 | 0.00 | 0.00 | 0.00 | 64 | 1014.9 |
| 20260905041114 | 15 | 256 | 4.8 | 9.7 | 0.00 | 0.00 | 0.00 | 63 | 1015.0 |
| 20260905040114 | 16 | 261 | 3.2 | 6.4 | 0.00 | 0.00 | 0.00 | 63 | 1014.9 |
| 20260905035114 | 16 | 265 | 4.8 | 6.4 | 0.00 | 0.00 | 0.00 | 62 | 1014.8 |
| 20260905034115 | 16 | 258 | 6.4 | 11.3 | 0.00 | 0.00 | 0.00 | 62 | 1014.8 |
| 20260905033136 | 16 | 258 | 6.4 | 11.3 | 0.00 | 0.00 | 0.00 | 61 | 1014.8 |
| 20260905032116 | 16 | 248 | 4.8 | 8.0 | 0.00 | 0.00 | 0.00 | 61 | 1014.8 |
| 20260905031116 | 16 | 244 | 4.8 | 8.0 | 0.00 | 0.00 | 0.00 | 60 | 1014.7 |
| 20260905030115 | 16 | 197 | 3.2 | 4.8 | 0.00 | 0.00 | 0.00 | 59 | 1014.6 |
| 20260905025115 | 16 | 234 | 4.8 | 6.4 | 0.00 | 0.00 | 0.00 | 57 | 1014.4 |
| 20260905024115 | 16 | 264 | 4.8 | 8.0 | 0.00 | 0.00 | 0.00 | 56 | 1014.3 |
| 20260905023116 | 16 | 254 | 6.4 | 9.7 | 0.00 | 0.00 | 0.00 | 55 | 1014.3 |
| 20260905022115 | 16 | 256 | 8.0 | 9.7 | 0.00 | 0.00 | 0.00 | 57 | 1014.2 |
| 20260905021135 | 17 | 254 | 4.8 | 8.0 | 0.00 | 0.00 | 0.00 | 58 | 1014.1 |
| 20260905020117 | 17 | 263 | 6.4 | 9.7 | 0.00 | 0.00 | 0.00 | 57 | 1014.0 |
| 20260905015116 | 18 | 270 | 8.0 | 14.5 | 0.00 | 0.00 | 0.00 | 57 | 1013.9 |
| 20260905014136 | 18 | 260 | 12.9 | 17.7 | 0.00 | 0.00 | 0.00 | 55 | 1013.7 |
| 20260905013116 | 20 | 269 | 12.9 | 24.1 | 0.00 | 0.00 | 0.00 | 51 | 1013.5 |
| 20260905012116 | 21 | 270 | 3.2 | 4.8 | 0.00 | 0.00 | 0.00 | 44 | 1013.2 |
| 20260905011118 | 22 | 87 | 1.6 | 3.2 | 0.00 | 0.00 | 0.00 | 42 | 1013.0 |
| 20260905010116 | 22 | 53 | 6.4 | 9.7 | 0.00 | 0.00 | 0.00 | 38 | 1012.9 |
| 20260905005018 | 23 | 354 | 6.4 | 9.7 | 0.00 | 0.00 | 0.00 | 39 | 1012.9 |
| 20260905004118 | 22 | 338 | 4.8 | 8.0 | 0.00 | 0.00 | 0.00 | 40 | 1012.8 |
| 20260905003116 | 22 | 19 | 6.4 | 11.3 | 0.00 | 0.00 | 0.00 | 41 | 1012.8 |
| 20260905002118 | 22 | 83 | 9.7 | 11.3 | 0.00 | 0.00 | 0.00 | 39 | 1012.7 |
| 20260905001117 | 22 | 76 | 8.0 | 11.3 | 0.00 | 0.00 | 0.00 | 39 | 1012.7 |
| 20260905000017 | 21 | 54 | 4.8 | 6.4 | 0.00 | 0.00 | 0.00 | 44 | 1012.7 |
| 20260904235017 | 22 | 10 | 4.8 | 8.0 | 0.00 | 0.00 | 0.00 | 41 | 1012.6 |
| 20260904234017 | 22 | 37 | 8.0 | 9.7 | 0.00 | 0.00 | 0.00 | 42 | 1012.6 |
| 20260904233119 | 23 | 9 | 8.0 | 11.3 | 0.00 | 0.00 | 0.00 | 40 | 1012.6 |
| 20260904232118 | 22 | 65 | 9.7 | 16.1 | 0.00 | 0.00 | 0.00 | 40 | 1012.6 |
| 20260904231139 | 21 | 35 | 4.8 | 6.4 | 0.00 | 0.00 | 0.00 | 42 | 1012.7 |
| 20260904230019 | 22 | 50 | 3.2 | 8.0 | 0.00 | 0.00 | 0.00 | 43 | 1012.7 |
| 20260904225018 | 22 | 59 | 6.4 | 11.3 | 0.00 | 0.00 | 0.00 | 42 | 1012.7 |